Meteo pe oră la Aberaeron

Astăzi, 3 August, Marţi

Timp Temperatura Precipitaţii Vânt Presiune Umiditate
00:00 +10°C° 0 mm 1 m/s 752 mmHg 90%
01:00 +10°C° 0 mm 1 m/s 752 mmHg 90%
02:00 +10°C° 0 mm 1 m/s 752 mmHg 91%
03:00 +10°C° 0 mm 1 m/s 752 mmHg 92%
04:00 +10°C° 0 mm 1 m/s 752 mmHg 92%
05:00 +11°C° 0 mm 1 m/s 752 mmHg 91%
06:00 +11°C° 0 mm 1 m/s 752 mmHg 91%
07:00 +13°C° 0 mm 1 m/s 752 mmHg 85%
08:00 +14°C° 0 mm 0 m/s 752 mmHg 79%
09:00 +16°C° 0 mm 0 m/s 752 mmHg 73%
10:00 +19°C° 0 mm 1 m/s 751 mmHg 70%
11:00 +18°C° 0 mm 2 m/s 751 mmHg 67%
12:00 +19°C° 0 mm 2 m/s 751 mmHg 65%
13:00 +18°C° 0 mm 2 m/s 751 mmHg 67%
14:00 +18°C° 0 mm 2 m/s 751 mmHg 69%
15:00 +18°C° 0 mm 2 m/s 751 mmHg 71%
16:00 +17°C° 0 mm 2 m/s 751 mmHg 73%
17:00 +18°C° 0 mm 1 m/s 751 mmHg 75%
18:00 +18°C° 0 mm 1 m/s 751 mmHg 77%
19:00 +15°C° 0 mm 1 m/s 751 mmHg 81%
20:00 +14°C° 0 mm 1 m/s 751 mmHg 85%
21:00 +11°C° 0 mm 0 m/s 751 mmHg 89%
22:00 +11°C° 0 mm 0 m/s 751 mmHg 89%
23:00 +11°C° 0 mm 0 m/s 751 mmHg 89%

Mâine, 4 August, Miercuri

Timp Temperatura Precipitaţii Vânt Presiune Umiditate
00:00 +10°C° 0 mm 0 m/s 751 mmHg 89%
01:00 +10°C° 0 mm 0 m/s 751 mmHg 89%
02:00 +10°C° 0 mm 0 m/s 751 mmHg 89%
03:00 +10°C° 0 mm 0 m/s 751 mmHg 89%
04:00 +12°C° 0 mm 1 m/s 751 mmHg 88%
05:00 +12°C° 0 mm 1 m/s 751 mmHg 88%
06:00 +13°C° 0 mm 1 m/s 751 mmHg 87%
07:00 +14°C° 0 mm 1 m/s 751 mmHg 82%
08:00 +16°C° 0 mm 1 m/s 752 mmHg 76%
09:00 +19°C° 0 mm 1 m/s 752 mmHg 71%
10:00 +19°C° 0 mm 1 m/s 751 mmHg 67%
11:00 +19°C° 0 mm 2 m/s 751 mmHg 64%
12:00 +20°C° 0 mm 2 m/s 751 mmHg 61%
13:00 +20°C° 0 mm 3 m/s 751 mmHg 62%
14:00 +20°C° 0 mm 3 m/s 751 mmHg 63%
15:00 +19°C° 0 mm 3 m/s 751 mmHg 65%
16:00 +19°C° 0 mm 3 m/s 751 mmHg 68%
17:00 +18°C° 0 mm 3 m/s 751 mmHg 72%
18:00 +18°C° 0 mm 4 m/s 751 mmHg 75%
19:00 +16°C° 0 mm 3 m/s 750 mmHg 81%
20:00 +14°C° 0 mm 3 m/s 750 mmHg 87%
21:00 +13°C° 0 mm 3 m/s 750 mmHg 93%
22:00 +12°C° 0 mm 3 m/s 750 mmHg 93%
23:00 +12°C° 0 mm 4 m/s 749 mmHg 94%

Poimâine, 5 August, Joi

Timp Temperatura Precipitaţii Vânt Presiune Umiditate
00:00 +12°C° 0 mm 4 m/s 749 mmHg 94%
01:00 +12°C° 0 mm 5 m/s 748 mmHg 94%
02:00 +13°C° 0 mm 5 m/s 748 mmHg 94%
03:00 +13°C° 0 mm 6 m/s 747 mmHg 94%
04:00 +13°C° 0.1 mm 6 m/s 746 mmHg 93%
05:00 +14°C° 0.1 mm 7 m/s 746 mmHg 93%
06:00 +14°C° 0.1 mm 7 m/s 745 mmHg 93%
07:00 +13°C° 0.1 mm 8 m/s 745 mmHg 92%
08:00 +15°C° 0.1 mm 8 m/s 744 mmHg 92%
09:00 +15°C° 0.1 mm 9 m/s 744 mmHg 91%
10:00 +15°C° 0.4 mm 9 m/s 743 mmHg 91%
11:00 +15°C° 0.4 mm 9 m/s 742 mmHg 90%
12:00 +16°C° 0.4 mm 9 m/s 742 mmHg 89%
13:00 +16°C° 0.8 mm 9 m/s 741 mmHg 90%
14:00 +16°C° 0.8 mm 8 m/s 741 mmHg 91%
15:00 +16°C° 0.8 mm 7 m/s 740 mmHg 92%
16:00 +16°C° 0.4 mm 6 m/s 740 mmHg 92%
17:00 +16°C° 0.4 mm 6 m/s 740 mmHg 92%
18:00 +16°C° 0.4 mm 5 m/s 739 mmHg 91%
19:00 +15°C° 0.2 mm 5 m/s 739 mmHg 92%
20:00 +15°C° 0.2 mm 5 m/s 739 mmHg 94%
21:00 +14°C° 0.2 mm 5 m/s 739 mmHg 95%
22:00 +14°C° 0.1 mm 5 m/s 739 mmHg 95%
23:00 +14°C° 0.1 mm 5 m/s 739 mmHg 95%

6 August, Vineri

Timp Temperatura Precipitaţii Vânt Presiune Umiditate
00:00 +15°C° 0.1 mm 5 m/s 738 mmHg 95%
01:00 +15°C° 0.3 mm 6 m/s 738 mmHg 95%
02:00 +15°C° 0.3 mm 7 m/s 738 mmHg 96%
03:00 +15°C° 0.3 mm 8 m/s 738 mmHg 96%
04:00 +13°C° 0.2 mm 8 m/s 739 mmHg 96%
05:00 +13°C° 0.2 mm 9 m/s 739 mmHg 95%
06:00 +13°C° 0.2 mm 9 m/s 739 mmHg 95%
07:00 +13°C° 0.1 mm 9 m/s 740 mmHg 93%
08:00 +13°C° 0.1 mm 9 m/s 740 mmHg 92%
09:00 +13°C° 0.1 mm 8 m/s 741 mmHg 90%
10:00 +15°C° 0.1 mm 8 m/s 741 mmHg 86%
11:00 +15°C° 0.1 mm 8 m/s 741 mmHg 82%
12:00 +16°C° 0.1 mm 8 m/s 742 mmHg 79%
13:00 +16°C° 0.1 mm 8 m/s 742 mmHg 76%
14:00 +17°C° 0.1 mm 8 m/s 742 mmHg 74%
15:00 +17°C° 0.1 mm 8 m/s 742 mmHg 72%
16:00 +17°C° 0.3 mm 8 m/s 742 mmHg 78%
17:00 +16°C° 0.3 mm 7 m/s 741 mmHg 85%
18:00 +15°C° 0.3 mm 7 m/s 741 mmHg 92%
19:00 +14°C° 0.2 mm 6 m/s 741 mmHg 93%
20:00 +14°C° 0.2 mm 6 m/s 741 mmHg 94%
21:00 +13°C° 0.2 mm 5 m/s 741 mmHg 95%
22:00 +13°C° 0.3 mm 5 m/s 741 mmHg 96%
23:00 +13°C° 0.3 mm 4 m/s 740 mmHg 96%

7 August, Sâmbătă

Timp Temperatura Precipitaţii Vânt Presiune Umiditate
00:00 +13°C° 0.3 mm 4 m/s 740 mmHg 97%
01:00 +13°C° 0.7 mm 4 m/s 740 mmHg 96%
02:00 +13°C° 0.7 mm 4 m/s 739 mmHg 96%
03:00 +13°C° 0.7 mm 4 m/s 739 mmHg 96%
04:00 +13°C° 0.3 mm 4 m/s 739 mmHg 96%
05:00 +13°C° 0.3 mm 4 m/s 739 mmHg 97%
06:00 +13°C° 0.3 mm 4 m/s 739 mmHg 97%
07:00 +13°C° 0.1 mm 4 m/s 739 mmHg 96%
08:00 +13°C° 0.1 mm 4 m/s 740 mmHg 94%
09:00 +14°C° 0.1 mm 5 m/s 740 mmHg 92%
10:00 +14°C° 0.4 mm 5 m/s 740 mmHg 91%
11:00 +15°C° 0.4 mm 6 m/s 741 mmHg 90%
12:00 +15°C° 0.4 mm 6 m/s 741 mmHg 88%
13:00 +15°C° 0.5 mm 7 m/s 741 mmHg 89%
14:00 +15°C° 0.5 mm 7 m/s 742 mmHg 90%
15:00 +15°C° 0.5 mm 8 m/s 742 mmHg 91%
16:00 +15°C° 0.5 mm 7 m/s 742 mmHg 92%
17:00 +14°C° 0.5 mm 7 m/s 742 mmHg 93%
18:00 +14°C° 0.5 mm 7 m/s 743 mmHg 94%
19:00 +14°C° 0.4 mm 7 m/s 743 mmHg 94%
20:00 +14°C° 0.4 mm 7 m/s 744 mmHg 95%
21:00 +13°C° 0.4 mm 8 m/s 744 mmHg 95%
22:00 +13°C° 0.3 mm 8 m/s 744 mmHg 95%
23:00 +13°C° 0.3 mm 8 m/s 745 mmHg 96%

8 August, Duminică

Timp Temperatura Precipitaţii Vânt Presiune Umiditate
00:00 +13°C° 0.3 mm 8 m/s 745 mmHg 96%
01:00 +13°C° 0.2 mm 8 m/s 745 mmHg 96%
02:00 +12°C° 0.2 mm 8 m/s 746 mmHg 96%
03:00 +12°C° 0.2 mm 8 m/s 746 mmHg 96%
04:00 +12°C° 0.3 mm 8 m/s 746 mmHg 96%
05:00 +12°C° 0.3 mm 8 m/s 747 mmHg 96%
06:00 +12°C° 0.3 mm 8 m/s 747 mmHg 96%
07:00 +14°C° 0.1 mm 7 m/s 748 mmHg 95%
08:00 +14°C° 0.1 mm 7 m/s 748 mmHg 94%
09:00 +14°C° 0.1 mm 7 m/s 749 mmHg 93%
10:00 +15°C° 0.2 mm 7 m/s 750 mmHg 90%
11:00 +15°C° 0.2 mm 7 m/s 750 mmHg 87%
12:00 +16°C° 0.2 mm 6 m/s 750 mmHg 85%
13:00 +16°C° 0.1 mm 7 m/s 751 mmHg 80%
14:00 +16°C° 0.1 mm 7 m/s 751 mmHg 76%
15:00 +17°C° 0.1 mm 7 m/s 751 mmHg 72%
16:00 +17°C° 0 mm 7 m/s 752 mmHg 75%
17:00 +16°C° 0 mm 7 m/s 752 mmHg 78%
18:00 +16°C° 0 mm 7 m/s 752 mmHg 81%
19:00 +15°C° 0.1 mm 6 m/s 752 mmHg 85%
20:00 +15°C° 0.1 mm 6 m/s 753 mmHg 90%
21:00 +15°C° 0.1 mm 5 m/s 753 mmHg 95%
22:00 +15°C° 0.1 mm 5 m/s 753 mmHg 95%
23:00 +15°C° 0.1 mm 5 m/s 753 mmHg 96%
Arată mai mult

Formular de consimțământ

Meteoprog și furnizorii noștri de servicii pot stoca și accesa date personale, precum cookies, identificatori de dispozitiv sau alte tehnologii similare pe dispozitivul dumneavoastră și procesa astfel de date pentru a personaliza conținutul și reclamele, dar și pentru a oferi caracteristici de social media și pentru a analiza traficul.

  • Stocarea și/sau accesarea informațiilor pe dispozitivul dumneavoastră

    Cookies, identificatori de dispozitiv sau alte informații pot fi stocate sau accesate pe dispozitiv în scopurile indicate mai sus.

  • Reclame și conținut personalizat, evaluarea reclamelor și a conținutului, informații despre audiențe și dezvoltarea produselor

    Reclamele și conținutul pot fi personalizate pe baza unui profil. Pot fi adăugate date suplimentare pentru a personaliza mai bine reclamele și conținutul. Performanța reclamelor și conținutului poate fi măsurată. Pot fi obținute informații despre utilizatorii care au văzut reclamele și conținutul. Aceste date pot fi utilizate pentru a dezvolta sau îmbunătăți experiența utilizatorilor, sistemele și software-ul.

Dând clic pe ‘Sunt de acord’, permiteți utilizarea cookie-urilor menționate, a identificatorilor de dispozitiv, balizelor web sau altor tehnologii similare. Setările pot fi modificate din browser-ul dispozitivului dumneavoastră.

În anumite scopuri, interesele legitime pot prima asupra consimțământului. Puteți citi mai multe informații în acest sens în Politica privind Confidențialitatea Datelor și Cookie.